Regional Weather Roundup
Issued by NWS

Home | Current Version | Previous Version | Text Only | Print | Product List | Glossary On
Versions: 1 2 3 4 5 6 7 8 9 10 11 12 13 14 15 16 17 18 19 20 21 22 23 24 25 26 27 28 29 30 31 32 33 34 35 36 37 38 39 40 41 42 43 44 45 46 47 48 49 50
000
ASHW40 PHFO 021430
RWRHI

WEATHER ROUNDUP FOR HAWAII
NATIONAL WEATHER SERVICE HONOLULU HI
400 AM HST SUN AUG 02 2015

THIS IS AN AUTOMATED REPORT THAT HAS NOT BEEN QUALITY CONTROLLED.

NOTE..."FAIR" INDICATES FEW OR NO CLOUDS BELOW 12,000 FEET WITH NO
SIGNIFICANT WEATHER AND/OR OBSTRUCTIONS TO VISIBILITY.

* - THESE SITES REPORT LIMITED FIELDS

HIZ001>004-021500-
KAUAI-NIIHAU-

CITY           SKY/WX    TMP DP  RH WIND       PRES   REMARKS
LIHUE APT      NOT AVBL
PORT ALLEN*    NOT AVBL
POIPU*           N/A     79 N/A N/A NE10G22     N/A
PRINCEVILLE*     N/A     75 N/A N/A MISG        N/A
KOKOLE POINT*  NOT AVBL
MOLOAA DAIRY*  NOT AVBL
WAIMEA HTS*    NOT AVBL
PUU OPAE*      NOT AVBL
PUU LUA*       NOT AVBL
MAKAHA RIDGE*    N/A     70  63  78 E2G8        N/A
$$

HIZ005>011-021500-
OAHU-

CITY           SKY/WX    TMP DP  RH WIND       PRES   REMARKS
HONOLULU       PTCLDY    79  67  66 NE3       29.89F
KALAELOA       CLEAR     76  66  71 NE5       29.90F
KANEOHE MCB    PTCLDY    78  68  71 NE8       29.89F
WHEELER FIELD  NOT AVBL
BELLOWS*         N/A    N/A N/A N/A NE17        N/A
KAHUKU*          N/A    N/A N/A N/A E10G17      N/A
WHEELER*       NOT AVBL
WAIANAE HARBOR NOT AVBL
DILLINGHAM*      N/A     75  66  73 MISG        N/A
KAHUKU TRN*      N/A     75  66  73 E10G22      N/A
KAWAILOA*        N/A     72  66  83 E14G24      N/A
KII*             N/A     79  70  73 E17G24      N/A
MAKUA RANGE*     N/A     79  64  61 E9G17       N/A
OAHU FOREST NW NOT AVBL
SCHOFIELD BRK*   N/A     72  64  78 MISG        N/A
SCHOFIELD S*   NOT AVBL
WAIANAE VLY*   NOT AVBL
KUAOKALA*      NOT AVBL
HONOULIUULI*   NOT AVBL
MOKUOLOE IS*   NOT AVBL
PALEHUA*       NOT AVBL
WAIAWA PHB*    NOT AVBL
$$

HIZ012>013-021500-
MOLOKAI-

CITY           SKY/WX    TMP DP  RH WIND       PRES   REMARKS
MOLOKAI AIRPT  CLEAR     76  66  71 NE18G24   29.89F
KALAUPAPA      NOT AVBL
MAKAPULAPAI*   NOT AVBL
MOLOKAI 1*     NOT AVBL
PUU ALII*        N/A     60  60 100 CALM        N/A
$$

HIZ016-021500-
KAHOOLAWE-

CITY           SKY/WX    TMP DP  RH WIND       PRES   REMARKS
KAHOOLAWE*     NOT AVBL
HAKIOAWA*        N/A     74  69  86 MISG      30.31S
HONOKANAIA*      N/A     79  69  70 N7G22     29.88
KANELOA*         N/A     77  68  73 NE5G18    29.95F
KEALIALALO*      N/A     73  66  78 E7G26     29.89S
LUA MAKIKA*    NOT AVBL
$$

HIZ014>015-021500-
LANAI-

CITY           SKY/WX    TMP DP  RH WIND       PRES   REMARKS
LANAI CITY     FAIR      72  67  84 NE20      29.92F
LANAI 1*       NOT AVBL
$$

HIZ017>028-021500-
MAUI-

CITY           SKY/WX    TMP DP  RH WIND       PRES   REMARKS
KAHULUI        PTCLDY    79  68  69 NE14      29.90F
KAPALUA-W MAUI NOT AVBL
HANA AIRPORT   CLOUDY    77  68  73 E7        29.94S
HANA*            N/A     79 N/A N/A E7          N/A
HALEAKALA SUMM   N/A     46  46 100 SE13G28     N/A
MAALAEA BAY*   NOT AVBL
HALEAKALA*     NOT AVBL
KAUPO GAP*     NOT AVBL
KULA 1*          N/A     55  53  93 E5          N/A
$$

HIZ023>026-021500-
BIG ISLAND OF HAWAII COAST AND LOWER SLOPES-

CITY           SKY/WX    TMP DP  RH WIND       PRES   REMARKS
KAILUA KONA    CLEAR     80  69  69 CALM      29.83F
HILO           LGT RAIN  74  73  97 W6        29.90F FOG
HONOKAA*       NOT AVBL
KAWAIHAE MWT*    N/A     82 N/A N/A NW6         N/A
KAWAIHAE*        N/A     82 N/A N/A N3          N/A
SOUTH POINT*     N/A     75 N/A N/A NE8         N/A
UPOLU AIRPORT*   N/A    N/A N/A N/A E16G23      N/A
KAMUELA*       CLOUDY    66  66 100 NE13      29.98S
HAKALAU*         N/A     58  58 100 CALM        N/A
KALOKO-HONOKO*   N/A     79  68  69 NE5       29.82S
PALI 2*          N/A     70  66  88 N14         N/A
KEALAKOMO*       N/A     79  70  73 VRB21G32    N/A
KAUPULEHU*     NOT AVBL
KAPAPALA*        N/A     71  68  91 N3          N/A
LOWER KAHUKU*    N/A     70  64  83 N1G7        N/A
PUHE CS*         N/A     81  70  69 NW2         N/A
PUHO CS*         N/A     76  65  70 E3          N/A
PTA KEAMUKU*     N/A     64  61  88 CALM        N/A
WAIKOLOA*      NOT AVBL
$$

HIZ027>028-021500-
BIG ISLAND OF HAWAII INTERIOR AND SUMMMITS-

CITY           SKY/WX    TMP DP  RH WIND       PRES   REMARKS
BRADSHAW FIELD CLOUDY    57  55  94 CALM      30.22F
MK VISITOR CEN   N/A      0   0 100 MISG        N/A
MAUNA KEA*       N/A     41  12  30 CALM        N/A
MAUNA LOA*       N/A     48  43  81 MISG        N/A
MAUNA LOA 1*   NOT AVBL
PTA KIPUKA*      N/A     63  59  88 S3G10       N/A
PTA RANGE 17*    N/A     63  57  82 SE3G17      N/A
PTA WEST*        N/A     82  77  83 S5          N/A  HX  91
NENE CABIN*      N/A     57 N/A N/A NE3G9       N/A
AHUMOA*        NOT AVBL
PTA PORTABLE*  NOT AVBL
PUU MALI*        N/A     57  55  94 S3          N/A
$$

HIC003-021500-
NORTHWEST ISLANDS-

CITY           SKY/WX    TMP DP  RH WIND       PRES   REMARKS
MIDWAY ISLAND  MOCLDY    79  73  83 SE6       29.94F
MIDWAY NOS*    NOT AVBL
FRENCH FRIGATE NOT AVBL
$$

PHZ110>124-180-021500-
BUOY REPORTS

STATION/POSITION TIME  TEMP    WIND        PRES    WAVE   SWELL
                       AIR SEA DIR/SP/G            HT/PER HT/DIR
                 (UTC) (F)     (DEG/KT/KT) (MB)    (FT/S) (FT/D)
BUOY 51001       NOT AVBL
BUOY 51101       1400   80 80   80/ 16/ 17 1014.1S   6/ 8   3/120
BUOY 51100       NOT AVBL
BUOY 51002       1400   78 82   90/ 17/ 21 1009.0S   9/ 9   5/100
BUOY 51003       1400   81 82   60/ 16/ 19 1010.7F   6/ 7   3
BUOY 51004       1335   81 81   90/ 14/ 16 1009.5F   7/ 8   7/ 80
BARBERS PT BUOY  NOT AVBL
WAIMEA BAY BUOY  1400      80                N/A     4/ 6
KAILUA BAY BUOY  1400      80                N/A     8/ 8   2/100
LANAI BUOY       NOT AVBL
BARBERS PT 2     1400      82                N/A     3/ 6   2/170
PAUWELA MAUI     1400      79                N/A     7/10   2/ 90
HILO             NOT AVBL
KANEOHE BAY BUOY 1400      79                N/A     6/ 7   2/ 90
HANALEI KAUAI    1400      81                N/A     6/11   2/100
KAHULUI HARBOR   1400   79 81   30/ 12/ 17 1012.3F
HONOLULU HARBOR  1400   79 81   80/  5/ 10 1012.1F
KILO NALU        NOT AVBL
HILO HARBOR      1400   74 79  300/  6/  7 1012.0F
MOKUOLOE         1400   80 83   80/ 10/ 12 1013.1F
NAWILIWILI       1400   79 83   50/ 10/ 15 1013.2F
WHOTS BUOY       NOT AVBL
BUOY 51028       NOT AVBL
$$

......................KEY........................................
  SKY/WX - SKY CONDITIONS/PRESENT WEATHER
  TMP    - TEMPERATURE IN FAHRENHEIT
  DWPT   - DEWPOINT IN FAHRENHEIT
  RH     - RELATIVE HUMIDITY IN PERCENT
  WIND   - DIRECTION AND SPEED /MPH FOR ISLANDS...KTS FOR BUOYS/
  PRES   - MEAN SEA LEVEL PRESSURE IN INCHES OF HG
  VSB    - VISIBILITY IN MILES
  HX     - HEAT INDEX
  WCI    - WIND CHILL INDEX
  VRB    - VARIABLE WIND DIRECTION
  N/A    - NOT AVAILABLE



USA.gov is the U.S. government's official web portal to all federal, state and local government web resources and services.